Location: Chillicothe
(39.7950°N, 93.5520°W)
Time: 11:34:00
(UTC-05:00)

OTV 5 (USA 277) - Visible Passes

Search period start: 16 October 2019 00:00
Search period end: 26 October 2019 00:00
Orbit: 310 x 324 km, 54.5° (Epoch: 08 October)

Date Brightness Start Highest point End Pass type
(mag) Time Alt. Az. Time Alt. Az. Time Alt. Az.
16 Oct ? 06:43:13 10° NNW 06:45:19 19° NNE 06:47:25 10° E visible
18 Oct ? 05:39:38 14° NNE 05:40:01 14° NNE 05:41:35 10° ENE visible
19 Oct ? 05:54:10 25° N 05:54:48 28° NE 05:57:14 10° E visible
20 Oct ? 06:08:49 49° NW 06:09:26 82° NE 06:12:09 10° SE visible
21 Oct ? 06:23:36 28° WSW 06:23:55 29° SW 06:26:19 10° SSE visible
22 Oct ? 06:38:32 10° SW 06:38:32 10° SW 06:38:43 10° SW visible
